Regional Weather Roundup
Issued by NWS

Home | Current Version | Previous Version | Graphics & Text | Print | Product List | Glossary On
Versions: 1 2 3 4 5 6 7 8 9 10 11 12 13 14 15 16 17 18 19 20 21 22 23 24 25 26 27 28 29 30 31 32 33 34 35 36 37 38 39 40 41 42 43 44 45 46 47 48 49 50
000
ASUS43 KMKX 031521
RWRWI

WISCONSIN REGIONAL WEATHER ROUNDUP
NATIONAL WEATHER SERVICE MILWAUKEE/SULLIVAN WI
1000 AM CDT SUN MAY 03 2015

NOTE: "FAIR" INDICATES FEW OR NO CLOUDS BELOW 12,000 FEET WITH NO
SIGNIFICANT WEATHER AND/OR OBSTRUCTIONS TO VISIBILITY.

WIZ001-002-006>008-014>016-023>028-031600-
NORTHWEST WISCONSIN

CITY           SKY/WX    TMP DP  RH WIND       PRES   REMARKS
SUPERIOR ARPT  SUNNY     70  55  57 W13       29.73S
ASHLAND        MOSUNNY   70  53  54 S13       29.74F
HAYWARD        PTSUNNY   65  50  58 S14       29.77S
SIREN          MOSUNNY   66  51  58 W8        29.79R
CUMBERLAND     PTSUNNY   63  50  63 S7        29.80S
RICE LAKE      PTSUNNY   66  51  57 S7        29.81R
CHETEK         PTSUNNY   65  53  63 S8        29.80R
LADYSMITH      MOSUNNY   64  52  64 S9        29.81F
EAU CLAIRE     MOSUNNY   68  51  54 S10       29.79F
MENOMONIE      PTSUNNY   67  51  57 S12       29.80S
NEW RICHMOND   PTSUNNY   66  51  58 SW10      29.79R
OSCEOLA        PTSUNNY   63  52  67 S6        29.81S
$$

WIZ003>005-009-010-017-018-031600-
NORTH CENTRAL WISCONSIN

CITY           SKY/WX    TMP DP  RH WIND       PRES   REMARKS
MANITOWISH WTR MOSUNNY   66  53  62 SW8       29.79S
ARBOR VITAE    MOSUNNY   66  52  60 S13       29.80S
WOODRUFF       MOSUNNY   66  52  60 S13       29.80S
RHINELANDER    MOSUNNY   65  50  58 SW12G18   29.83F
EAGLE RIVER    SUNNY     66  49  52 S8        29.80F
LAND O LAKES   MOSUNNY   67  50  53 S7        29.80F
PHILLIPS       MOSUNNY   64  51  61 S12G17    29.80S
TOMAHAWK       PTSUNNY   65  50  59 S5        29.83F
MEDFORD        PTSUNNY   63  50  61 S10       29.83F
MERRILL        PTSUNNY   65  51  59 SW9       29.84F
$$

WIZ029-030-035-036-043>047-031600-
CENTRAL WISCONSIN

CITY           SKY/WX    TMP DP  RH WIND       PRES   REMARKS
WAUSAU         PTSUNNY   66  50  56 SW10      29.84F
MOSINEE        MOSUNNY   64  52  63 SW10      29.87S
MARSHFIELD     PTSUNNY   68  50  52 SW12      29.85F
STEVENS POINT  CLOUDY    66  48  53 SW13G18   29.87S
WAUPACA        PTSUNNY   69  50  50 S7        29.87F
WAUTOMA        PTSUNNY   71  50  47 S10       29.88S
WISC RAPIDS    PTSUNNY   68  47  46 S12       29.87S
CAMP DOUGLAS   CLOUDY    68  52  56 S8        29.84F
$$

WIZ011>013-019>022-031-037>040-048>050-031600-
NORTHEAST WISCONSIN

CITY           SKY/WX    TMP DP  RH WIND       PRES   REMARKS
ANTIGO         PTSUNNY   64  50  60 SW12      29.86F
SHAWANO        PTSUNNY   69  50  49 SW14      29.87S
OCONTO         MOSUNNY   70  51  50 SW9G18    29.86S
STURGEON BAY   MOSUNNY   72  48  43 SW14      29.90S
GREEN BAY      PTSUNNY   69  49  48 SW15      29.88F
MANITOWOC      PTSUNNY   69  51  52 S12       29.90F
APPLETON       PTSUNNY   70  48  46 SW14      29.88F
CLINTONVILLE   CLOUDY    68  50  52 SW10      29.87S
OSHKOSH        PTSUNNY   71  48  43 SW16G24   29.88F
$$

WIZ032>034-041-042-053>061-031600-
SOUTHWEST WISCONSIN

CITY           SKY/WX    TMP DP  RH WIND       PRES   REMARKS
LA CROSSE      CLOUDY    69  51  52 S13       29.82F
SPARTA         CLOUDY    68  48  49 S9        29.85F
VIROQUA        CLOUDY    66  51  57 S10       29.86S
BOSCOBEL       CLOUDY    68  51  54 S10       29.86S
PRAIRIE DU CHI CLOUDY    68  49  51 S15       29.84S
PLATTEVILLE    CLOUDY    65  53  63 S20       29.87F
$$

WIZ056-057-062-063-064-067-068-031600-
SOUTH CENTRAL WISCONSIN

CITY           SKY/WX    TMP DP  RH WIND       PRES   REMARKS
REEDSBURG      CLOUDY    66  51  57 SW12      29.87S
BARABOO/DELLS  NOT AVBL
LONE ROCK      CLOUDY    67  51  56 S7        29.87F
MINERAL POINT  CLOUDY    68  52  56 S16       29.89R
MADISON        CLOUDY    65  49  56 S13       29.90S
MIDDLETON      CLOUDY    68  46  45 S9        29.90S
WATERTOWN      PTSUNNY   64  48  54 S10       29.91S
MONROE         CLOUDY    64  52  63 S14G22    29.91S
JANESVILLE     MOSUNNY   68  46  45 S8        29.92F
$$

WIZ051-052-058>065-066-070>072-031600-
SOUTHEAST WISCONSIN

CITY           SKY/WX    TMP DP  RH WIND       PRES   REMARKS
MILWAUKEE      PTSUNNY   72  45  37 S15       29.93F
WAUKESHA       PTSUNNY   68  43  40 S10       29.95S
MILWAUKEE/TIMM SUNNY     72  39  30 S14G21    29.93F
RACINE         PTSUNNY   73  45  36 S8        29.95F
BURLINGTON     PTSUNNY   66  43  43 S12       29.94S
KENOSHA        PTSUNNY   72  46  39 S14       29.94F
FOND DU LAC    PTSUNNY   72  46  39 S18G25    29.88F
SHEBOYGAN      PTSUNNY   71  49  45 S13G21    29.91F
WEST BEND      PTSUNNY   70  41  35 S13G18    29.91F
JUNEAU         PTSUNNY   66  47  50 S17       29.92S
$$

LSZ147-162-031600-
LAKE SUPERIOR

STATION/POSITION TIME  TEMP    WIND        PRES    WAVE
                       AIR SEA DIR/SP/G            HT/PER
                 (UTC) (F)     (DEG/KT/KT) (MB)    (FT/S)
W MID LAKE BUOY  1450   45 35  200/  8/  8 1007.1F   1
DEVILS ISLAND    1500   59     210/  6/  8 1006.7F
PORT WING        1400   57      60/  4/  8 1006.8
SAXON HARBOR     1440   69     200/ 11/ 14 1006.4S
$$

LMZ867-665-643>646-031600-
LAKE MICHIGAN

STATION/POSITION TIME  TEMP    WIND        PRES    WAVE
                       AIR SEA DIR/SP/G            HT/PER
                 (UTC) (F)     (DEG/KT/KT) (MB)    (FT/S)
CHAMBERS ISLAND  1400   61     190/  8/ 19 1011.9S
NORTHPORT PIER   1500   56      CALM  / 16 1011.9R
KEWAUNEE LAKESHO 1412   49     180/ 10/ 12 1011.8
SHEBOYGAN LAKESH 1500   50     170/ 19/ 19 1013.3F
PORT WASHINGTON  1440   53     120/  2/  4 1014.2S
ATWATER BUOY     1500   50     150/ 10/ 12 1014.7F
MILWAUKEE LAKESH 1500          210/ 16/ 19   N/A
KENOSHA   LAKESH 1500   50     170/ 12/ 15 1013.9F
$$

TC  - TEMPERATURE IN CELSIUS
VSB - VISIBILITY IN STATUTE MILES
WCI - WIND CHILL INDEX
HX  - HEAT INDEX



USA.gov is the U.S. government's official web portal to all federal, state and local government web resources and services.